Weather History for El Paso, TX

Change the Weather History Date:

Wednesday, February 23, 2011

  Actual Average Record
Temperature  
Mean Temperature 54 °F 52 °F  
Max Temperature 70 °F 65 °F 84 °F (1904)
Min Temperature 38 °F 39 °F 20 °F (1976)
Degree Days  
Heating Degree Days 11 13  
Month to date heating degree days 483 356  
Since 1 July heating degree days 1905 2041  
Cooling Degree Days 0 0  
Month to date cooling degree days 1 0  
Year to date cooling degree days 1 0  
Growing Degree Days 4 (Base 50)    
Moisture  
Dew Point 14 °F    
Average Humidity 20    
Maximum Humidity 30    
Minimum Humidity 10    
Precipitation  
Precipitation 0.00 in 0.01 in 0.18 in (1923)
Month to date precipitation 0.11 0.39  
Year to date precipitation 0.11 0.79  
Snow  
Snow 0.00 in - - ()
Month to date snowfall 1.5  
Since 1 July snowfall 2.0  
Snow Depth 0.00 in    
Sea Level Pressure  
Sea Level Pressure 29.81 in    
Wind  
Wind Speed 10 mph (WSW)    
Max Wind Speed 28 mph    
Max Gust Speed 36 mph    
Visibility 10 miles    
Events      
T = Trace of Precipitation, MM = Missing Value Source: NWS Daily Summary

Daily Weather History Graph

Daily Weather History Graph

Search for Another Location

Airport:

Trip Planner

Search our weather history database for the weather conditions in past years. The results will help you decide how hot, cold, wet, or windy it might be!

Date:

Astronomy

Feb. 23, 2011 Rise Set
Actual Time 6:39 AM MST 5:58 PM MST
Civil Twilight 6:14 AM MST 6:23 PM MST
Nautical Twilight 5:46 AM MST 6:51 PM MST
Astronomical Twilight 5:18 AM MST 7:19 PM MST
Moon No Moon Rise 9:57 AM MST (2/23)
Length of Visible Light 12h 08m
Length of Day
11h 19m
Waning Gibbous, 63% of the Moon is Illuminated
Feb 23
Waning Gibbous
Feb 24
Last Quarter
Mar 4
New
Mar 12
First Quarter
Mar 19
Full

Hourly Weather History & Observations

Time (MST) Temp. Windchill Dew Point Humidity Pressure Visibility Wind Dir Wind Speed Gust Speed Precip Events Conditions
12:51 AM 60.1 °F - 15.1 °F 17% 29.80 in 10.0 mi WSW 15.0 mph - N/A   Clear
1:51 AM 60.1 °F - 16.0 °F 18% 29.79 in 10.0 mi West 15.0 mph - N/A   Clear
2:51 AM 57.0 °F - 16.0 °F 20% 29.79 in 10.0 mi West 10.4 mph - N/A   Clear
3:51 AM 55.0 °F - 15.1 °F 21% 29.80 in 10.0 mi NW 4.6 mph - N/A   Clear
4:51 AM 44.1 °F 40.8 °F 12.9 °F 28% 29.84 in 10.0 mi ENE 5.8 mph - N/A   Clear
5:51 AM 39.0 °F 34.0 °F 10.9 °F 32% 29.87 in 10.0 mi East 6.9 mph - N/A   Clear
6:51 AM 44.1 °F - 10.9 °F 26% 29.89 in 10.0 mi Calm Calm - N/A   Clear
7:51 AM 48.9 °F - 10.9 °F 22% 29.89 in 10.0 mi Calm Calm - N/A   Clear
8:51 AM 57.0 °F - 12.0 °F 17% 29.88 in 10.0 mi Variable 3.5 mph - N/A   Clear
9:51 AM 60.1 °F - 15.1 °F 17% 29.88 in 10.0 mi Calm Calm - N/A   Clear
10:51 AM 62.1 °F - 17.1 °F 18% 29.86 in 10.0 mi Calm Calm - N/A   Clear
11:51 AM 66.0 °F - 19.0 °F 17% 29.83 in 10.0 mi South 10.4 mph - N/A   Clear
12:51 PM 66.0 °F - 17.1 °F 15% 29.79 in 10.0 mi SW 12.7 mph 17.3 mph N/A   Clear
1:51 PM 68.0 °F - 14.0 °F 12% 29.75 in 10.0 mi West 10.4 mph - N/A   Clear
2:51 PM 69.8 °F - 10.4 °F 10% 29.87 in 10.0 mi WSW 16.1 mph 23.0 mph N/A   Clear
3:51 PM 69.1 °F - 14.0 °F 12% 29.71 in 10.0 mi West 12.7 mph 18.4 mph N/A   Partly Cloudy
4:51 PM 68.0 °F - 14.0 °F 12% 29.72 in 10.0 mi WSW 8.1 mph - N/A   Partly Cloudy
5:51 PM 66.0 °F - 14.0 °F 13% 29.74 in 10.0 mi WSW 8.1 mph - N/A   Clear
6:51 PM 62.6 °F - 14.0 °F 15% 29.84 in 10.0 mi WSW 4.6 mph - N/A   Clear
7:51 PM 63.0 °F - 12.0 °F 14% 29.75 in 10.0 mi West 12.7 mph - N/A   Clear
8:51 PM 62.1 °F - 10.9 °F 13% 29.74 in 10.0 mi West 21.9 mph 31.1 mph N/A   Clear
9:51 PM 61.0 °F - 12.0 °F 15% 29.77 in 10.0 mi WSW 23.0 mph 28.8 mph N/A   Clear
10:51 PM 57.9 °F - 15.1 °F 19% 29.78 in 10.0 mi West 17.3 mph 25.3 mph N/A   Clear
11:51 PM 54.0 °F - 19.9 °F 26% 29.80 in 10.0 mi NW 16.1 mph - N/A   Partly Cloudy